GW0349 Weather Reports


Display with metric or nautical units.
time (UTC)temp
F
wind
direction
speed
MPH
gust
MPH
rain 1hr
in
rain 24hr
in
rain mn
in
humidity
%
barometer
mb
20260508134554 60 90 1.0 5.0 0.00 0.00 0.00 59 1018.0
20260508133101 59 0 2.0 6.0 0.00 0.00 0.00 61 1018.0
20260508131600 59 80 2.0 5.0 0.00 0.00 0.00 62 1017.9
20260508130051 59 72 1.0 4.0 0.00 0.00 0.00 65 1017.9
20260508124550 57 124 1.0 4.0 0.00 0.00 0.00 71 1017.8
20260508123051 55 12 0.0 3.0 0.00 0.00 0.00 77 1017.6
20260508121552 53 0 0.0 3.0 0.00 0.00 0.00 82 1017.7
20260508120054 51 329 0.0 2.0 0.00 0.00 0.00 86 1017.3
20260508114548 49 335 0.0 3.0 0.00 0.01 0.00 90 1017.1
20260508113046 47 338 1.0 3.0 0.00 0.01 0.00 94 1017.0
20260508111600 46 0 0.0 0.0 0.00 0.01 0.00 96 1016.6
20260508104549 45 0 0.0 0.0 0.00 0.01 0.00 94 1016.3
20260508103053 44 0 0.0 0.0 0.00 0.01 0.00 94 1015.8
20260508101555 45 0 0.0 0.0 0.00 0.01 0.00 94 1015.7
20260508100056 45 0 0.0 0.0 0.00 0.01 0.00 94 1015.5
20260508094551 46 0 0.0 0.0 0.00 0.01 0.00 94 1015.4
20260508093051 46 0 0.0 0.0 0.00 0.01 0.00 94 1015.4
20260508091607 46 0 0.0 0.0 0.00 0.01 0.00 94 1015.3
20260508090056 47 0 0.0 0.0 0.00 0.01 0.00 93 1015.3
20260508084603 47 0 0.0 0.0 0.00 0.01 0.00 94 1015.1
20260508083101 47 0 0.0 0.0 0.00 0.01 0.00 93 1015.0
20260508081555 47 0 0.0 0.0 0.00 0.01 0.00 93 1015.1
20260508080104 48 0 1.0 3.0 0.00 0.01 0.00 94 1015.0
20260508074549 48 0 0.0 0.0 0.00 0.01 0.00 93 1014.6
20260508073057 48 0 0.0 0.0 0.00 0.01 0.00 93 1014.7
20260508071551 48 0 0.0 3.0 0.00 0.01 0.00 94 1014.8
20260508070053 48 297 0.0 0.0 0.00 0.01 0.00 93 1014.6
20260508064556 48 0 0.0 0.0 0.00 0.01 0.00 93 1014.4
20260508063053 49 0 0.0 0.0 0.00 0.01 0.00 93 1014.3
20260508061551 49 0 0.0 0.0 0.00 0.01 0.00 93 1014.4
20260508060052 49 0 0.0 0.0 0.00 0.01 0.00 92 1014.5
20260508054558 50 0 0.0 0.0 0.00 0.01 0.00 92 1014.4
20260508053056 50 0 0.0 0.0 0.00 0.01 0.00 92 1014.4
20260508051608 50 0 0.0 0.0 0.00 0.01 0.00 91 1014.3
20260508050103 51 0 0.0 0.0 0.00 0.01 0.00 91 1014.2
20260508044555 51 0 0.0 0.0 0.00 0.01 0.00 91 1014.0
20260508043056 51 321 0.0 2.0 0.00 0.01 0.00 90 1014.1
20260508041558 51 0 0.0 2.0 0.00 0.01 0.00 89 1014.0
20260508040101 52 0 0.0 2.0 0.00 0.01 0.00 88 1013.9
20260508034552 52 0 0.0 2.0 0.00 0.01 0.01 87 1014.1
20260508033048 53 0 0.0 3.0 0.00 0.01 0.01 86 1013.7
20260508031552 54 0 0.0 3.0 0.00 0.01 0.01 85 1013.9
20260508030054 54 0 0.0 2.0 0.00 0.01 0.01 83 1013.8
20260508024547 55 0 0.0 0.0 0.00 0.02 0.01 82 1013.4
20260508023053 55 0 0.0 0.0 0.00 0.02 0.01 81 1013.4
20260508021550 57 0 0.0 2.0 0.00 0.02 0.01 79 1013.0
20260508020101 57 0 0.0 2.0 0.00 0.02 0.01 74 1012.9
20260508014551 58 0 0.0 2.0 0.00 0.02 0.01 74 1012.8
20260508013050 59 60 0.0 2.0 0.00 0.02 0.01 70 1012.4
20260508011547 60 11 0.0 2.0 0.00 0.02 0.01 67 1012.1
20260508010053 60 360 1.0 9.0 0.00 0.02 0.01 65 1011.7
20260508004555 61 332 3.0 14.0 0.00 0.02 0.01 63 1011.5
20260508003052 62 319 7.0 13.0 0.00 0.02 0.01 64 1011.3
20260508001554 61 333 6.0 11.0 0.00 0.02 0.01 79 1011.2
20260508000057 62 10 3.0 10.0 0.00 0.02 0.01 86 1011.2
20260507234558 62 65 3.0 9.0 0.00 0.02 0.01 85 1010.8
20260507233115 63 76 4.0 9.0 0.00 0.02 0.01 85 1010.4
20260507231600 63 50 3.0 10.0 0.00 0.02 0.01 84 1010.3
20260507230055 63 51 3.0 9.0 0.00 0.02 0.01 84 1009.9
20260507224552 63 90 2.0 7.0 0.00 0.02 0.01 83 1009.7
20260507223113 63 39 5.0 13.0 0.00 0.02 0.01 83 1009.2
20260507221557 63 75 3.0 17.0 0.00 0.02 0.01 83 1009.1
20260507220056 63 17 7.0 16.0 0.00 0.02 0.01 83 1009.0
20260507214553 63 59 9.0 18.0 0.00 0.03 0.01 83 1008.7
20260507213058 63 59 9.0 19.0 0.00 0.03 0.01 85 1008.6
20260507211602 63 70 7.0 15.0 0.00 0.03 0.01 86 1008.0
20260507210113 64 90 8.0 17.0 0.00 0.03 0.01 86 1007.6
20260507204555 65 71 5.0 14.0 0.00 0.03 0.01 87 1007.3
20260507203056 69 103 7.0 14.0 0.00 0.03 0.01 81 1007.6
20260507201600 71 244 4.0 8.0 0.00 0.03 0.01 79 1007.2
20260507200057 71 165 5.0 11.0 0.00 0.03 0.01 85 1007.2
20260507194556 70 209 6.0 17.0 0.00 0.03 0.01 89 1007.3
20260507193048 69 209 4.0 7.0 0.00 0.03 0.01 90 1007.4
20260507191553 70 221 4.0 9.0 0.00 0.03 0.01 86 1007.4
20260507190057 73 175 5.0 13.0 0.00 0.03 0.01 76 1007.7
20260507184551 74 225 5.0 12.0 0.00 0.04 0.01 74 1007.5
20260507183112 74 233 3.0 15.0 0.00 0.04 0.01 74 1007.6
20260507181558 73 269 5.0 10.0 0.00 0.04 0.01 79 1007.7
20260507180053 72 225 5.0 12.0 0.00 0.04 0.01 75 1007.9
20260507174602 71 178 7.0 12.0 0.00 0.04 0.01 78 1008.0
20260507173102 71 211 6.0 11.0 0.00 0.04 0.01 79 1008.2
20260507171553 70 195 3.0 9.0 0.00 0.04 0.01 83 1008.3
20260507170054 70 254 3.0 11.0 0.00 0.04 0.01 85 1008.6
20260507164622 69 245 4.0 9.0 0.00 0.05 0.01 87 1008.9
20260507163059 68 202 4.0 9.0 0.00 0.05 0.01 88 1008.9
20260507161559 67 259 5.0 9.0 0.00 0.05 0.01 89 1008.9
20260507160052 67 232 5.0 9.0 0.00 0.05 0.01 92 1009.3
20260507154556 66 225 3.0 7.0 0.00 0.05 0.01 94 1008.9
20260507153057 65 225 2.0 7.0 0.00 0.05 0.01 97 1008.5
20260507151553 64 234 1.0 6.0 0.00 0.05 0.01 98 1008.7
20260507150055 64 223 3.0 5.0 0.00 0.05 0.01 97 1009.5
20260507144552 64 221 3.0 8.0 0.00 0.05 0.01 98 1009.6
20260507143051 64 141 2.0 8.0 0.00 0.05 0.01 98 1009.7
20260507141551 64 223 4.0 8.0 0.00 0.05 0.01 98 1010.2
20260507140052 63 229 2.0 4.0 0.00 0.05 0.01 98 1009.8